Wind_Speed
23 22 22 22 23 22 22 22 21 22 23 23 24 24 24 25 27 28 28 28 28 29 30 31 31 31 31 31 31 31 31 31 30 30 31 30 30 31 30 32 32 32 31
23 22 22 22 22 22 22 22 22 23 24 24 24 25 25 25 27 27 27 27 28 29 29 30 30 30 30 30 30 30 31 31 31 31 31 31 31 31 31 31 31 32 31
22 22 22 23 23 23 23 23 23 23 23 24 24 25 24 25 25 26 26 26 27 27 28 28 28 28 28 29 29 30 30 30 31 31 32 32 32 32 32 32 32 32 31
21 21 22 23 23 23 23 23 24 24 24 24 24 24 24 24 24 24 25 25 26 27 27 27 27 27 27 28 29 29 29 30 31 31 31 31 32 32 32 33 32 31 31
22 22 23 23 23 23 23 24 25 25 24 24 23 24 24 24 25 24 25 25 25 25 26 27 27 27 28 28 28 28 29 29 30 30 30 30 31 32 32 32 32 31 32
22 22 23 23 23 24 24 25 25 25 25 24 24 24 24 24 24 23 24 24 24 25 26 27 27 28 28 28 28 29 29 29 29 29 29 29 30 30 31 32 32 31 31
23 23 23 23 24 24 25 25 25 25 25 25 24 24 24 24 23 23 24 25 25 25 25 26 27 28 28 29 29 29 29 29 28 28 28 29 29 29 30 30 30 30 30
24 24 24 24 24 25 26 26 25 25 25 25 24 24 24 23 23 23 24 25 25 25 25 25 26 26 27 27 27 27 28 27 27 27 28 28 28 28 28 29 28 28 29
25 25 24 25 25 26 26 26 26 25 25 25 25 24 24 23 23 23 24 24 23 23 23 23 24 25 25 26 26 26 27 27 27 27 27 28 28 28 28 28 28 29 29
24 24 25 26 26 26 26 26 25 24 24 24 25 24 24 24 24 24 23 23 22 22 22 22 23 24 24 24 25 25 25 25 26 26 27 27 27 27 27 27 28 28 28
25 26 26 26 26 26 26 25 25 24 23 23 23 24 23 24 24 24 23 22 22 22 22 23 23 23 23 23 23 23 24 24 24 25 25 25 25 25 26 26 27 28 28
26 26 26 27 26 26 26 25 24 24 23 23 23 23 23 23 23 23 23 23 22 22 22 23 23 23 22 22 22 23 23 24 24 24 24 24 24 25 25 25 25 26 28
26 27 27 27 26 26 26 26 25 24 23 23 23 23 23 23 22 22 23 23 22 21 21 22 23 23 24 23 23 22 23 23 23 23 22 23 23 22 22 23 23 24 25
26 27 27 27 27 26 26 25 24 23 23 22 22 22 22 22 22 22 21 21 21 21 21 21 21 22 22 22 22 22 22 22 23 22 21 21 21 21 21 21 22 22 22
27 27 26 26 27 26 25 24 23 23 22 21 21 21 21 21 21 21 20 20 20 21 21 21 21 21 21 22 21 21 21 21 21 20 19 19 20 20 20 20 21 21 21
28 27 27 27 27 26 25 25 24 24 22 20 20 20 20 21 21 20 20 21 21 21 21 21 21 21 21 21 21 20 19 19 19 20 19 20 20 20 21 21 21 21 20
29 29 28 28 28 27 26 26 25 24 23 21 21 20 20 20 20 20 20 20 20 21 21 21 21 21 21 21 20 20 20 19 19 20 20 20 20 20 21 21 21 20 20
29 29 29 28 28 27 27 27 25 24 23 22 21 21 21 20 20 20 19 19 19 19 20 20 20 19 19 19 19 19 19 19 19 19 19 19 20 20 21 21 21 21 21
29 28 28 28 28 28 28 26 26 24 22 21 21 21 21 20 21 20 20 19 19 19 19 19 19 18 18 18 18 18 18 18 18 19 19 19 20 21 21 21 21 21 21
28 28 28 27 28 27 26 25 24 22 22 21 21 20 20 20 20 20 19 19 18 18 19 19 19 19 18 18 18 18 18 18 18 18 18 19 19 20 21 22 21 21 22
28 27 27 26 26 25 24 23 22 21 21 20 19 19 19 19 19 19 19 19 18 18 18 18 19 19 19 19 19 19 19 19 19 20 20 20 20 20 21 21 22 22 23
26 26 25 25 25 24 23 22 20 19 19 18 18 18 19 19 19 19 18 18 18 18 18 18 18 18 19 19 19 20 20 20 21 21 21 21 20 20 20 21 22 22 22
26 25 25 24 23 22 21 20 19 18 18 18 18 19 19 19 19 19 18 18 18 18 18 18 18 18 19 19 20 20 21 21 22 21 21 21 21 21 20 20 21 21 21
25 25 24 23 22 22 20 19 18 18 18 18 19 19 20 19 18 18 17 17 17 17 17 17 17 18 18 19 20 20 21 21 21 21 21 21 21 21 20 20 20 19 20
25 24 24 23 22 21 20 19 18 18 18 18 19 19 19 19 18 17 17 17 17 17 17 18 18 18 17 18 19 19 20 20 20 20 20 19 19 19 19 19 19 18 18
25 24 23 23 22 21 20 19 18 18 18 18 19 19 18 18 18 18 18 17 17 18 17 17 17 17 17 17 17 17 17 18 18 18 18 17 17 17 17 17 18 18 18
Wind_Direction
294 296 297 295 294 295 296 295 295 294 290 289 287 284 281 279 278 276 274 272 271 271 270 268 267 269 267 265 264 264 263 263 262 261 261 261 260 259 259 256 255 255 255
295 295 295 298 297 298 297 297 298 297 294 291 290 288 283 280 278 277 275 275 273 272 271 269 268 268 266 265 265 265 264 264 263 261 261 261 261 260 261 259 258 256 255
295 295 296 297 296 298 301 301 300 298 295 294 292 288 285 282 278 276 275 276 275 273 272 270 268 266 266 266 266 265 264 264 262 261 260 261 260 259 260 259 257 256 255
299 300 300 298 297 300 301 302 302 301 298 296 293 290 288 284 280 277 276 276 275 273 272 269 267 265 266 267 266 265 264 263 262 262 261 261 260 259 258 257 256 257 256
301 303 304 303 303 304 303 304 304 301 298 295 292 289 288 284 281 278 277 276 276 274 272 270 269 268 268 268 266 267 266 264 264 264 262 262 261 260 258 258 258 258 257
302 303 306 306 305 305 305 304 303 300 298 297 294 293 292 287 283 281 279 278 276 275 274 272 271 270 268 267 268 268 269 267 265 265 263 262 262 260 260 260 258 257 256
302 305 307 309 308 305 304 303 302 300 299 297 295 292 292 289 284 281 280 279 278 277 275 274 273 271 270 269 268 267 267 265 265 265 264 262 261 262 261 259 257 256 254
302 305 308 309 309 308 306 304 303 301 299 297 296 294 291 289 286 285 282 281 280 279 278 274 272 270 270 270 268 267 267 266 265 264 264 262 262 263 261 258 256 255 253
304 306 307 308 308 308 308 306 304 302 300 298 297 295 290 289 288 286 284 283 282 281 280 277 275 273 273 272 269 268 268 267 266 265 263 263 263 261 261 258 256 254 253
304 305 305 306 308 308 308 307 306 303 300 298 297 295 293 291 290 289 287 286 284 281 279 279 277 275 275 274 271 269 268 268 267 264 264 264 261 260 259 257 256 254 252
304 304 305 306 306 308 309 308 306 304 303 302 299 298 296 293 290 289 286 285 284 281 281 279 277 276 275 273 271 270 269 268 267 265 264 263 261 259 257 256 255 254 252
304 305 306 307 308 308 309 309 307 306 304 303 301 299 298 295 290 287 285 284 283 280 280 280 278 275 274 274 272 271 270 269 267 266 264 263 261 261 259 256 255 254 253
304 306 307 308 308 308 309 309 308 306 303 302 302 300 299 297 293 289 287 284 283 282 280 281 278 274 273 273 272 272 272 271 271 270 265 263 262 260 257 255 254 253 253
305 306 306 307 307 307 308 309 309 307 304 302 302 301 299 297 296 293 289 285 282 282 283 282 282 278 275 272 272 273 273 272 271 269 265 263 261 258 256 256 255 254 253
305 306 306 306 307 307 306 307 308 307 304 302 302 301 299 299 298 296 291 288 286 284 282 281 281 279 277 277 276 273 272 271 269 267 264 260 259 258 256 258 256 253 252
305 305 305 306 307 307 305 305 306 306 304 302 301 299 298 297 296 295 292 289 286 284 282 282 281 280 279 278 278 275 273 272 269 266 263 259 259 258 256 257 258 255 252
303 304 304 306 306 305 304 304 303 302 301 299 297 297 296 295 295 293 291 288 287 285 283 280 280 278 278 276 275 275 273 273 269 267 265 260 260 260 259 258 257 255 253
301 302 303 303 304 304 303 302 301 299 298 297 297 296 295 295 295 294 292 289 287 285 283 280 278 278 277 276 273 272 271 271 270 267 266 264 262 262 261 260 259 256 254
299 300 301 301 301 302 302 300 300 299 298 297 297 298 297 297 297 295 293 290 288 286 284 281 278 278 276 275 273 271 270 269 268 266 264 264 263 263 261 260 259 257 256
299 300 301 301 302 303 301 300 299 297 297 298 297 298 299 300 299 297 295 292 290 288 285 282 279 275 273 271 272 271 269 267 266 265 264 264 264 263 260 258 258 259 259
301 301 301 302 302 302 301 300 298 298 298 298 298 300 299 299 299 297 295 292 290 290 288 285 280 275 272 269 270 269 268 265 265 266 265 265 266 264 260 258 257 258 259
301 301 301 301 301 301 300 300 298 299 299 297 297 298 300 300 299 298 296 294 292 292 289 285 281 277 274 270 270 268 267 266 266 265 264 265 266 267 265 263 260 259 259
300 300 301 300 300 300 299 297 296 297 296 296 298 299 300 300 299 298 297 295 295 295 293 288 283 278 275 273 271 269 267 265 265 264 265 265 265 267 268 268 263 262 260
297 298 298 298 300 300 298 296 296 298 298 298 297 298 299 299 300 300 299 297 296 297 294 290 287 284 278 274 272 270 268 267 265 262 263 264 264 265 266 265 263 261 260
294 294 294 296 298 299 296 294 295 297 297 297 297 297 299 301 302 302 301 297 295 297 296 292 290 287 283 279 276 273 269 266 264 264 263 263 264 264 265 262 259 260 261
292 292 294 296 297 297 297 294 293 295 295 297 300 299 299 299 300 301 300 297 296 298 296 294 293 289 286 283 278 275 272 269 265 264 263 262 263 264 265 261 259 259 260
Height
5789 5786 5784 5782 5779 5776 5773 5771 5768 5766 5764 5762 5760 5758 5757 5756 5755 5754 5753 5752 5752 5751 5751 5751 5751 5751 5751 5751 5752 5752 5752 5753 5754 5754 5754 5755 5756 5756 5757 5758 5759 5761 5763
5784 5781 5779 5776 5773 5770 5768 5765 5763 5760 5758 5755 5753 5751 5749 5748 5747 5746 5745 5744 5743 5743 5742 5742 5742 5742 5742 5742 5743 5743 5743 5744 5744 5745 5746 5746 5747 5747 5748 5749 5750 5751 5753
5779 5776 5774 5771 5768 5765 5762 5759 5756 5754 5751 5749 5746 5744 5742 5741 5739 5738 5737 5736 5735 5735 5734 5734 5734 5734 5734 5734 5734 5734 5734 5734 5735 5735 5736 5737 5737 5738 5739 5740 5741 5742 5744
5774 5771 5768 5765 5763 5759 5756 5754 5751 5748 5745 5742 5740 5737 5735 5733 5732 5730 5729 5728 5727 5727 5726 5726 5726 5725 5726 5725 5725 5725 5724 5724 5725 5726 5726 5727 5728 5728 5729 5730 5731 5733 5735
5769 5766 5763 5760 5757 5754 5750 5747 5744 5741 5738 5735 5733 5730 5728 5726 5724 5723 5722 5721 5719 5719 5718 5718 5717 5717 5717 5717 5717 5716 5716 5715 5716 5716 5717 5718 5718 5719 5720 5720 5722 5723 5725
5763 5760 5757 5754 5750 5747 5744 5741 5738 5735 5732 5729 5726 5724 5721 5719 5718 5716 5714 5713 5712 5711 5710 5710 5709 5709 5709 5708 5708 5708 5707 5707 5707 5707 5708 5708 5709 5709 5710 5711 5712 5714 5716
5758 5754 5751 5748 5744 5741 5738 5735 5731 5728 5725 5722 5719 5717 5714 5712 5711 5709 5707 5706 5705 5704 5703 5702 5701 5700 5700 5700 5699 5699 5699 5698 5698 5698 5699 5699 5700 5701 5701 5702 5702 5704 5707
5752 5749 5745 5742 5739 5735 5731 5728 5724 5721 5718 5716 5713 5710 5707 5705 5704 5702 5700 5698 5697 5696 5695 5694 5693 5692 5692 5691 5691 5691 5690 5690 5690 5690 5690 5691 5691 5691 5691 5693 5694 5695 5698
5746 5742 5739 5736 5733 5729 5725 5721 5718 5715 5712 5709 5706 5703 5701 5699 5697 5695 5693 5691 5690 5688 5687 5686 5685 5685 5684 5683 5683 5683 5682 5682 5681 5681 5681 5681 5682 5682 5683 5684 5685 5687 5689
5740 5737 5733 5730 5726 5723 5719 5715 5712 5708 5705 5702 5699 5696 5694 5692 5690 5688 5685 5684 5683 5681 5680 5679 5678 5677 5676 5675 5675 5674 5674 5674 5673 5673 5673 5673 5673 5673 5674 5675 5677 5679 5681
5733 5730 5727 5724 5720 5716 5713 5709 5705 5702 5699 5696 5692 5689 5687 5684 5682 5681 5679 5677 5676 5675 5673 5672 5671 5670 5669 5668 5667 5667 5666 5666 5665 5665 5665 5664 5665 5665 5666 5667 5669 5670 5673
5727 5724 5721 5717 5714 5710 5706 5702 5699 5696 5692 5689 5686 5683 5680 5677 5676 5674 5672 5671 5669 5668 5667 5665 5664 5663 5662 5661 5660 5659 5658 5657 5657 5657 5656 5657 5657 5657 5658 5659 5660 5662 5664
5721 5718 5714 5711 5707 5703 5700 5696 5692 5689 5686 5683 5680 5677 5674 5671 5668 5666 5665 5663 5662 5660 5659 5658 5657 5656 5654 5653 5652 5651 5651 5650 5650 5649 5649 5650 5650 5650 5651 5652 5653 5654 5656
5714 5711 5708 5704 5700 5697 5693 5690 5686 5683 5680 5677 5674 5671 5668 5665 5662 5659 5657 5656 5654 5653 5652 5651 5649 5648 5647 5646 5645 5644 5643 5643 5642 5642 5642 5643 5643 5643 5644 5645 5646 5648 5649
5707 5704 5701 5697 5694 5690 5687 5683 5680 5676 5673 5670 5667 5664 5662 5659 5656 5653 5651 5649 5648 5646 5645 5644 5643 5641 5640 5639 5638 5637 5636 5636 5635 5635 5635 5636 5636 5637 5638 5639 5640 5641 5642
5700 5697 5694 5690 5686 5683 5680 5676 5673 5670 5667 5664 5661 5658 5655 5653 5650 5648 5645 5643 5641 5639 5638 5637 5636 5634 5633 5632 5631 5630 5630 5629 5629 5629 5629 5629 5630 5631 5632 5633 5634 5635 5636
5693 5689 5686 5682 5679 5675 5672 5669 5666 5663 5660 5658 5655 5652 5649 5647 5644 5642 5639 5637 5634 5632 5631 5630 5629 5628 5626 5625 5624 5624 5623 5623 5623 5623 5623 5623 5624 5624 5625 5626 5627 5628 5629
5685 5681 5678 5675 5671 5668 5665 5661 5658 5655 5653 5650 5648 5645 5643 5640 5638 5635 5632 5630 5628 5626 5624 5623 5622 5621 5620 5619 5618 5617 5617 5617 5616 5616 5617 5617 5618 5618 5619 5620 5621 5622 5623
5677 5673 5670 5667 5663 5660 5657 5653 5650 5648 5645 5643 5640 5638 5635 5633 5631 5628 5625 5623 5621 5619 5618 5616 5615 5614 5613 5612 5612 5611 5611 5610 5610 5610 5611 5611 5611 5612 5613 5613 5614 5615 5616
5669 5665 5662 5659 5656 5652 5649 5646 5643 5641 5638 5636 5634 5631 5629 5626 5624 5621 5619 5616 5614 5613 5611 5610 5609 5608 5607 5606 5605 5605 5604 5604 5604 5604 5605 5605 5605 5605 5606 5607 5607 5608 5609
5661 5658 5654 5651 5648 5645 5642 5639 5636 5634 5632 5629 5627 5625 5622 5620 5617 5615 5612 5610 5608 5606 5605 5603 5602 5601 5600 5599 5599 5598 5598 5598 5598 5598 5598 5598 5599 5599 5599 5600 5600 5601 5602
5653 5650 5647 5644 5641 5638 5635 5632 5630 5628 5625 5623 5621 5619 5616 5614 5611 5609 5606 5604 5602 5600 5598 5596 5595 5594 5593 5593 5592 5592 5591 5591 5592 5591 5591 5592 5592 5592 5593 5593 5593 5594 5595
5646 5643 5640 5638 5635 5632 5629 5626 5624 5622 5620 5618 5615 5613 5611 5608 5605 5603 5600 5598 5596 5594 5592 5590 5589 5587 5586 5585 5585 5584 5584 5585 5584 5584 5584 5585 5585 5586 5586 5586 5586 5587 5587
5639 5636 5634 5631 5629 5626 5623 5621 5619 5617 5615 5612 5610 5607 5605 5602 5600 5597 5595 5593 5590 5588 5586 5584 5583 5581 5579 5578 5578 5577 5577 5577 5577 5577 5577 5578 5578 5578 5578 5578 5579 5579 5580
5632 5629 5627 5625 5622 5620 5618 5616 5614 5611 5609 5607 5604 5602 5599 5596 5594 5592 5590 5587 5585 5583 5580 5578 5576 5575 5573 5572 5571 5570 5570 5570 5570 5570 5570 5570 5571 5571 5570 5571 5571 5572 5572
5624 5622 5620 5618 5616 5614 5612 5610 5608 5606 5604 5601 5599 5596 5593 5591 5589 5587 5584 5582 5579 5577 5575 5573 5571 5569 5567 5566 5565 5564 5564 5564 5563 5563 5563 5563 5564 5564 5564 5564 5565 5565 5566